User: anonymous   Login
Location: Unspecified
(0.0000°N, 0.0000°E)
Time: 06:45:31
(UTC+01:00)
Language:

DELTA 2 R/B (1) - Orbit

View from above orbital plane
View from above orbital plane
View from above satellite
View from above satellite

Ground track
Ground track

The orbit data is extracted from the following two-line orbital elements,

1 27665U 03005C   15025.90493170 -.00000062  00000-0  93215-5 0  2166
2 27665 039.5739 236.4559 0008274 342.9947 141.7412 14.28287246626038
Epoch (UTC): 25 January 2015 21:43:06
Eccentricity: 0.0008274
inclination: 39.5739°
perigee height: 791 km
apogee height: 803 km
right ascension of ascending node: 236.4559°
argument of perigee: 342.9947°
revolutions per day: 14.28287246
mean anomaly at epoch: 141.7412°
orbit number at epoch: 62603

The dashed part of the orbit path shows where the satellite is in the earth's shadow,  

DLR